Location: *
(51.5000°N, 0.1100°W)
Time: 15:51:22
(UTC+00:00)

Cosmos 841 Rocket - Pass Details

Date: 25 May 2024
Orbit: 744 x 770 km, 74.0° (Epoch: 16 June)

Event Time Altitude Azimuth Distance (km) Brightness Sun altitude
Rises 00:44:17 0° 335° (NNW) 3,233 7.6 -16.8°
Reaches altitude 10° 00:46:40 10° 337° (NNW) 2,308 6.8 -16.7°
Maximum altitude 00:51:55 80° 64° (ENE) 783 3.6 -16.5°
Enters shadow 00:56:00 17° 151° (SSE) 1,860 5.1 -16.4°
